[[{"header":{"parameterUnit":"m.s-1","parameterCategory":1,"la1":30.2991,"la2":30.254,"lo1":-89.0895,"lo2":-89.0444,"dy":0.0017,"dx":0.0017,"nx":28,"ny":28,"refTime":"2023-09-21T03:00:00:Z","depth":0,"parameterNumber":2,"parameterNumberName":"U-component_of_WINDS"},"data":[0,0,0,0,0,0,0,0,0,0,0,0,0,0,0,0,0,0,0,0,0,0,0,0,0,0,0,0,0,0,0,0,0,0,0,0,0,0,0,0,0,0,0,0,0,0,0,0,0,0,0,0,0,0,0,0,0,0,-4.7345,-4.7345,0,-4.7415,-4.7415,-4.7416,-4.7251,-4.7245,-4.724,-4.7235,-4.7311,-4.7318,-4.7325,0,0,0,0,0,0,0,0,0,0,0,0,0,-4.7071,-4.7077,-4.7345,-4.7345,-4.7346,-4.7414,-4.7415,-4.7416,-4.7252,-4.7245,-4.7239,-4.7233,-4.7309,-4.7317,-4.7325,0,0,0,0,0,0,0,0,0,0,0,0,0,-4.7171,-4.7079,-4.7344,-4.7272,-4.7266,-4.7414,-4.7415,-4.7417,-4.7253,-4.7245,-4.7237,-4.723,-4.7306,-4.7316,-4.7326,-4.7549,0,0,-4.7358,-4.7363,0,0,0,0,0,0,0,0,-4.7165,-4.7181,-4.7282,-4.7277,-4.7271,-4.7316,-4.7346,-4.7461,-4.7255,-4.7258,-4.7235,-4.7226,-4.7319,-4.7328,-4.7359,-4.7552,-4.7555,-4.7359,-4.7365,-4.737,-4.7373,0,0,0,0,0,0,0,-4.7158,-4.7177,-4.7372,-4.7284,-4.7277,-4.7237,-4.7243,-4.7367,-4.7332,-4.7257,-4.7245,-4.7256,-4.7315,-4.7349,-4.7359,-4.7557,-4.7359,-4.7368,-4.7374,-4.7378,-4.7936,-4.7944,0,0,0,0,0,0,-4.716,-4.7172,-4.737,-4.7374,-4.7197,-4.7249,-4.7255,-4.7309,-4.733,-4.7326,-4.7262,-4.7248,-4.7335,-4.7347,-4.7361,-4.7623,-4.737,-4.7379,-4.7385,-4.7927,-4.7938,-4.7947,0,0,0,0,0,0,-4.7155,-4.718,-4.7367,-4.727,-4.7291,-4.7262,-4.7325,-4.7315,-4.7349,-4.7334,-4.7327,-4.7304,-4.7329,-4.7347,-4.7503,-4.7623,-4.7384,-4.7394,-4.7917,-4.7931,-4.7942,-4.8149,0,0,0,0,0,0,-4.7148,-4.7179,-4.7262,-4.7273,-4.7297,-4.7508,-4.7332,-4.7322,-4.7367,-4.7348,-4.7371,-4.7367,-4.7324,-4.7488,-4.7513,-4.7633,-4.7402,-4.7906,-4.7923,-4.7938,-4.8131,-4.8167,-4.8198,0,0,0,0,0,-4.7139,-4.7319,-4.7267,-4.7292,-4.7401,-4.7515,-4.7528,-4.7474,-4.7377,-4.7462,-4.7452,-4.7367,-4.7606,-4.7506,-4.7532,-4.7658,-4.7899,-4.7918,-4.7937,-4.8116,-4.816,-4.8197,0,0,0,0,0,0,-4.7324,-4.7319,-4.7262,-4.745,-4.7484,-4.7487,-4.7591,-4.7522,-4.7585,-4.7566,-4.7497,-4.7503,-4.7673,-4.768,-4.7569,-4.7874,-4.7736,-4.7761,-4.7863,-4.7904,-4.7937,-4.7933,-4.741,0,0,0,0,0,-4.7387,-4.7479,-4.7469,-4.7637,-4.7656,-4.7622,-4.7669,-4.7624,-4.7657,-4.7671,-4.7673,-4.7709,-4.7792,-4.7848,-4.7924,-4.8131,-4.8134,-4.823,-4.8263,-4.8291,-4.8314,-4.8424,-4.8467,-4.801,-4.801,-4.801,0,0,-4.7518,-4.7526,-4.7589,-4.7674,-4.7695,-4.7793,-4.7635,-4.7745,-4.7818,-4.7688,-4.7836,-4.7839,-4.7874,-4.8057,-4.8137,-4.8068,-4.8441,-4.8315,-4.8337,-4.8346,-4.8449,-4.8492,-4.8531,-4.8023,-4.8021,-4.8019,0,0,-4.7806,-4.7821,-4.7962,-4.7986,-4.8019,-4.7994,-4.8028,-4.8041,-4.8038,-4.8184,-4.8089,-4.8175,-4.8319,-4.8348,-4.8382,-4.8681,-4.8606,-4.8708,-4.8883,-4.8991,-4.9027,-4.9059,-4.9166,-4.9206,-4.8731,-4.8731,-4.8732,0,-4.7965,-4.8108,-4.8044,-4.8161,-4.8202,-4.8087,-4.823,-4.8256,-4.8313,-4.8345,-4.8266,-4.8444,-4.846,-4.8648,-4.8721,-4.8752,-4.879,-4.8706,-4.9027,-4.9058,-4.9087,-4.9188,-4.9229,-4.8744,-4.8742,-4.8741,-4.874,0,-4.8302,-4.8402,-4.8512,-4.8569,-4.8621,-4.8751,-4.8708,-4.8769,-4.8719,-4.8704,-4.8855,-4.8869,-4.8946,-4.8987,-4.894,-4.9169,-4.9125,-4.9038,-4.8898,-4.9144,-4.9238,-4.9276,-4.8761,-4.8757,-4.8753,-4.875,0,0,-4.871,-4.8728,-4.877,-4.8794,-4.8822,-4.8899,-4.9023,-4.9097,-4.9151,-4.9194,-4.9298,-4.9422,-4.9341,-4.938,-4.9335,-4.943,-4.9667,-4.9331,-4.9331,-4.9394,-4.9921,-4.9987,-5.0033,-4.9616,-4.9623,-4.9629,-4.9918,0,-4.8996,-4.9208,-4.9154,-4.9366,-4.9458,-4.935,-4.9458,-4.9488,-4.9476,-4.9554,-4.9541,-4.963,-4.9516,-4.9539,-4.9628,-4.9619,-4.9772,-4.9597,-4.9713,-4.9718,-4.9709,-5.0082,-5.0153,-5.0425,-4.9954,-4.9961,-4.9965,0,-4.9358,-4.9413,-4.9634,-4.9646,-4.9683,-4.9781,-4.9844,-4.9919,-4.995,-4.9935,-4.9978,-4.9914,-5.0038,-4.9896,-5.0066,-4.9949,-4.9993,-4.9995,-5.0005,-5.0015,-4.9857,-5.0104,-5.0511,-5.0552,-5.0022,-5.0018,-5.0014,0,-4.9635,-4.9765,-4.9913,-4.9937,-4.9955,-5.0027,-5.0038,-5.0061,-5.0108,-5.0163,-5.0194,-5.0263,-5.0302,-5.0358,-5.0315,-5.0216,-5.0493,-5.0347,-5.0485,-5.0486,-5.0549,-5.0546,-5.097,-5.0576,-5.0575,-5.0574,-5.0574,0,-4.996,-5.01,-5.0038,-5.013,-5.0283,-5.022,-5.0373,-5.0372,-5.0393,-5.0484,-5.0394,-5.0481,-5.0418,-5.05,-5.0468,-5.0614,-5.0632,-5.0624,-5.0614,-5.0633,-5.0634,-5.0662,-5.0642,-5.0585,-5.0583,-5.0581,-5.0579,0,-5.0297,-5.0261,-5.0416,-5.0419,-5.0423,-5.0536,-5.0539,-5.0625,-5.0606,-5.0721,-5.0745,-5.0716,-5.0807,-5.0769,-5.0867,-5.0845,-5.1033,-5.0997,-5.1022,-5.1013,-5.1153,-5.1141,-5.1611,-5.167,-5.1237,-5.1241,-5.1245,0,-5.0507,-5.0612,-5.0626,-5.0679,-5.0696,-5.0783,-5.0831,-5.0772,-5.0826,-5.0869,-5.095,-5.1033,-5.1097,-5.1249,-5.1237,-5.1311,-5.1277,-5.1437,-5.1288,-5.1304,-5.1281,-5.1276,-5.1286,-5.1467,-5.1473,-5.1477,-5.148,0,-5.0885,-5.0862,-5.0933,-5.0999,-5.1058,-5.1108,-5.1149,-5.1198,-5.1141,-5.1206,-5.1298,-5.1348,-5.1446,-5.1531,-5.1596,-5.1608,-5.1536,-5.1526,-5.1562,-5.1584,-5.1594,-5.1591,-5.1105,-5.1516,-5.1513,-5.151,-5.1508,-5.1507,-5.1166,-5.1254,-5.1277,-5.136,-5.1384,-5.1425,-5.1506,-5.1496,-5.1571,-5.1646,-5.1607,-5.1714,-5.1742,-5.1822,-5.1844,-5.1928,-5.1866,-5.1918,-5.1931,-5.1945,-5.1964,-5.158,-5.194,-5.1939,-5.1938,-5.1937,-5.1936,0,-5.154,-5.1549,-5.1626,-5.1686,-5.1751,-5.1675,-5.1717,-5.1777,-5.1872,-5.1904,-5.1968,-5.2074,-5.2156,-5.215,-5.2225,-5.2293,-5.2262,-5.2315,-5.2311,-5.2315,-5.2015,-5.1977,-5.2339,-5.2339,-5.2339,-5.2339,-5.2339,-5.2339,-5.1742,-5.1887,-5.1867,-5.2023,-5.2031,-5.2135,-5.2165,-5.2203,-5.2228,-5.235,-5.2416,-5.2411,-5.2429,-5.2504,-5.2576,-5.2572,-5.2604,-5.267,-5.2655,-5.2376,-5.2336,-5.2298,-5.2261,-5.2678,-5.2678,-5.2947,-5.295,-5.2952]},{"header":{"parameterUnit":"m.s-1","parameterCategory":1,"la1":30.2991,"la2":30.254,"lo1":-89.0895,"lo2":-89.0444,"dy":0.0017,"dx":0.0017,"nx":28,"ny":28,"refTime":"2023-09-21T03:00:00:Z","depth":0,"parameterNumber":3,"parameterNumberName":"V-component_of_WINDS"},"data":[0,0,0,0,0,0,0,0,0,0,0,0,0,0,0,0,0,0,0,0,0,0,0,0,0,0,0,0,0,0,0,0,0,0,0,0,0,0,0,0,0,0,0,0,0,0,0,0,0,0,0,0,0,0,0,0,0,0,-2.7395,-2.7395,0,-2.736,-2.736,-2.736,-2.731,-2.7309,-2.7308,-2.7307,-2.7272,-2.7272,-2.7272,0,0,0,0,0,0,0,0,0,0,0,0,0,-2.7417,-2.7417,-2.7395,-2.7395,-2.7394,-2.736,-2.736,-2.736,-2.731,-2.7309,-2.7308,-2.7307,-2.7272,-2.7272,-2.7272,0,0,0,0,0,0,0,0,0,0,0,0,0,-2.7398,-2.7417,-2.7395,-2.7365,-2.7362,-2.7361,-2.736,-2.7359,-2.731,-2.7309,-2.7308,-2.7306,-2.7272,-2.7272,-2.7272,-2.7296,0,0,-2.7271,-2.7271,0,0,0,0,0,0,0,0,-2.7399,-2.7397,-2.737,-2.7368,-2.7364,-2.7338,-2.7355,-2.7338,-2.7311,-2.733,-2.7307,-2.7306,-2.7295,-2.7293,-2.7289,-2.7295,-2.7293,-2.7271,-2.7271,-2.7271,-2.7271,0,0,0,0,0,0,0,-2.74,-2.7398,-2.7381,-2.737,-2.7366,-2.7353,-2.7349,-2.7351,-2.732,-2.7328,-2.7325,-2.7321,-2.7293,-2.729,-2.7288,-2.7293,-2.7271,-2.7271,-2.7271,-2.7271,-2.7313,-2.7315,0,0,0,0,0,0,-2.7406,-2.74,-2.7382,-2.738,-2.7379,-2.7354,-2.7349,-2.7348,-2.732,-2.7315,-2.7322,-2.7319,-2.7291,-2.7288,-2.7287,-2.7311,-2.7271,-2.7271,-2.727,-2.7312,-2.7314,-2.7315,0,0,0,0,0,0,-2.7407,-2.7405,-2.7384,-2.7389,-2.7385,-2.7355,-2.7354,-2.7348,-2.7344,-2.7315,-2.731,-2.7324,-2.7289,-2.7287,-2.7293,-2.7309,-2.7271,-2.727,-2.7311,-2.7313,-2.7314,-2.7362,0,0,0,0,0,0,-2.7408,-2.7406,-2.7415,-2.739,-2.7385,-2.7392,-2.7355,-2.7348,-2.7344,-2.7339,-2.7316,-2.7311,-2.7288,-2.7294,-2.7293,-2.7308,-2.727,-2.7309,-2.7311,-2.7314,-2.7359,-2.7366,-2.7371,0,0,0,0,0,-2.7409,-2.7431,-2.7416,-2.7414,-2.7396,-2.7393,-2.739,-2.7364,-2.7345,-2.7354,-2.7335,-2.7312,-2.7308,-2.7295,-2.7294,-2.7309,-2.7308,-2.7311,-2.7314,-2.7357,-2.7364,-2.7371,0,0,0,0,0,0,-2.7459,-2.7427,-2.741,-2.7424,-2.7412,-2.7385,-2.7395,-2.7374,-2.7366,-2.7362,-2.7329,-2.7324,-2.7335,-2.7323,-2.7309,-2.733,-2.7304,-2.7307,-2.7337,-2.7345,-2.7351,-2.7352,-2.727,0,0,0,0,0,-2.7472,-2.7472,-2.7444,-2.7459,-2.7454,-2.7426,-2.7423,-2.7404,-2.7389,-2.7384,-2.7366,-2.7352,-2.7348,-2.7346,-2.7341,-2.7358,-2.7351,-2.7367,-2.7373,-2.7378,-2.7381,-2.7386,-2.7393,-2.7324,-2.7324,-2.7324,0,0,-2.7499,-2.7481,-2.7483,-2.7469,-2.7457,-2.7457,-2.7421,-2.7424,-2.7423,-2.7384,-2.7388,-2.7375,-2.7358,-2.7369,-2.7373,-2.736,-2.7398,-2.7382,-2.7386,-2.7386,-2.739,-2.7396,-2.7402,-2.7326,-2.7326,-2.7326,0,0,-2.7547,-2.7534,-2.7544,-2.7532,-2.7514,-2.7495,-2.7498,-2.7473,-2.7462,-2.7466,-2.7436,-2.7435,-2.7429,-2.7418,-2.7411,-2.7453,-2.743,-2.7452,-2.7483,-2.7489,-2.7494,-2.7499,-2.7512,-2.7517,-2.7455,-2.7455,-2.7455,0,-2.7582,-2.7581,-2.7552,-2.7556,-2.7549,-2.7514,-2.7523,-2.7513,-2.7494,-2.7491,-2.7476,-2.7465,-2.7452,-2.7459,-2.7469,-2.7465,-2.7466,-2.7454,-2.7496,-2.75,-2.7504,-2.7516,-2.7521,-2.7458,-2.7457,-2.7457,-2.7457,0,-2.7624,-2.7624,-2.7634,-2.7616,-2.7611,-2.7618,-2.7589,-2.7588,-2.7568,-2.7551,-2.7554,-2.7536,-2.7525,-2.7526,-2.7508,-2.753,-2.7521,-2.7502,-2.7475,-2.7514,-2.7524,-2.7528,-2.7461,-2.746,-2.746,-2.7459,0,0,-2.7702,-2.7667,-2.7671,-2.7662,-2.7638,-2.7637,-2.7642,-2.7631,-2.7629,-2.7618,-2.7619,-2.7614,-2.7595,-2.7587,-2.7567,-2.7573,-2.7604,-2.7552,-2.7551,-2.756,-2.7625,-2.7638,-2.7644,-2.7589,-2.759,-2.7591,-2.7625,0,-2.7744,-2.7749,-2.7723,-2.7735,-2.7733,-2.7699,-2.7702,-2.7688,-2.7671,-2.7667,-2.7648,-2.7644,-2.7621,-2.7615,-2.7619,-2.76,-2.7616,-2.7597,-2.7589,-2.7589,-2.7593,-2.765,-2.7665,-2.7699,-2.763,-2.763,-2.7631,0,-2.7794,-2.7783,-2.7795,-2.7769,-2.7767,-2.7771,-2.7757,-2.7754,-2.7737,-2.7724,-2.7715,-2.7692,-2.7693,-2.7668,-2.7669,-2.7656,-2.7651,-2.7641,-2.7642,-2.7639,-2.7611,-2.7647,-2.7709,-2.7713,-2.7637,-2.7637,-2.7636,0,-2.7847,-2.7836,-2.7841,-2.7834,-2.7805,-2.7808,-2.7796,-2.7777,-2.7771,-2.776,-2.7755,-2.7745,-2.7739,-2.773,-2.7704,-2.7689,-2.7707,-2.768,-2.7695,-2.7695,-2.7699,-2.7699,-2.776,-2.7699,-2.7699,-2.7699,-2.7699,0,-2.7895,-2.7903,-2.7864,-2.7867,-2.7874,-2.7844,-2.7852,-2.7836,-2.7819,-2.7818,-2.7788,-2.7787,-2.7753,-2.7748,-2.7728,-2.773,-2.7728,-2.7717,-2.7711,-2.7719,-2.772,-2.7714,-2.771,-2.7701,-2.77,-2.77,-2.77,0,-2.7956,-2.793,-2.7933,-2.7904,-2.7897,-2.7904,-2.7879,-2.788,-2.7861,-2.7859,-2.7857,-2.7828,-2.782,-2.7793,-2.778,-2.7766,-2.7774,-2.7764,-2.7779,-2.7775,-2.779,-2.7789,-2.7848,-2.7853,-2.7792,-2.7792,-2.7793,0,-2.7987,-2.7992,-2.7964,-2.7961,-2.795,-2.7945,-2.7939,-2.7909,-2.7904,-2.7883,-2.7886,-2.7876,-2.7866,-2.7856,-2.7832,-2.7821,-2.7809,-2.7831,-2.7808,-2.7814,-2.7807,-2.7806,-2.7806,-2.7836,-2.7837,-2.7837,-2.7838,0,-2.8045,-2.8032,-2.8024,-2.8012,-2.8005,-2.7994,-2.7981,-2.798,-2.7946,-2.7941,-2.7933,-2.7925,-2.791,-2.79,-2.7885,-2.7872,-2.7849,-2.7845,-2.7848,-2.7855,-2.7862,-2.7856,-2.7791,-2.7844,-2.7843,-2.7843,-2.7843,-2.7842,-2.8091,-2.8093,-2.8073,-2.8064,-2.8051,-2.8039,-2.8038,-2.8019,-2.8011,-2.7996,-2.7979,-2.7972,-2.7953,-2.793,-2.7919,-2.7912,-2.79,-2.7904,-2.7904,-2.7905,-2.7908,-2.7865,-2.791,-2.7909,-2.7909,-2.7909,-2.7909,0,-2.8145,-2.813,-2.8123,-2.8105,-2.8099,-2.8078,-2.8062,-2.8057,-2.8052,-2.8036,-2.8026,-2.8016,-2.8005,-2.7981,-2.7968,-2.7967,-2.7956,-2.7965,-2.7963,-2.796,-2.7921,-2.7919,-2.7974,-2.7974,-2.7974,-2.7974,-2.7974,-2.7974,-2.8173,-2.8174,-2.8158,-2.8152,-2.8137,-2.813,-2.8123,-2.8111,-2.8098,-2.8087,-2.8078,-2.8062,-2.8042,-2.8027,-2.8016,-2.8009,-2.8005,-2.8017,-2.8006,-2.797,-2.7963,-2.7957,-2.7956,-2.8017,-2.8017,-2.8046,-2.8046,-2.8046]}]]